Regional Weather Roundup
Issued by NWS Upton, NY

Current Version | Previous Version | Graphics & Text | Print | Product List | Glossary Off
Versions: 1 2 3 4 5 6 7 8 9 10 11 12 13 14 15 16 17 18 19 20 21 22 23 24 25 26 27 28 29 30 31 32 33 34 35 36 37 38 39 40 41 42 43 44 45 46 47 48 49 50

604
ASUS41 KOKX 251404
RWROKX

REGIONAL WEATHER ROUNDUP
NATIONAL WEATHER SERVICE NEW YORK NY
1000 AM EDT SUN SEP 25 2016

NOTE: "FAIR" INDICATES FEW OR NO CLOUDS BELOW 12,000 FEET WITH NO
SIGNIFICANT WEATHER AND/OR OBSTRUCTIONS TO VISIBILITY.

NYZ071-072-176-178-NJZ106-104-251500-
NEW YORK CITY METRO AREA

CITY           SKY/WX    TMP DP  RH WIND       PRES   REMARKS
Central Park   SUNNY     59  42  53 VRB6      30.22F
LaGuardia APRT SUNNY     60  41  49 NE9       30.19F
Kennedy INTL   SUNNY     62  38  40 N12       30.20S
Newark/Liberty SUNNY     61  41  47 NE7       30.20F
Bronx Bot Gard   N/A     59  39  47 NW6       30.22R
Wall St Helipt SUNNY     64  43  45 CALM      30.20S
Teterboro      SUNNY     60  40  47 N7        30.19F
$$

NYZ177-179-078>081-251500-
LONG ISLAND NEW YORK

CITY           SKY/WX    TMP DP  RH WIND       PRES   REMARKS
Farmingdale    SUNNY     61  38  42 N12       30.19S
MacArthur/ISP  SUNNY     62  39  42 N10       30.18S
Shirley        SUNNY     61  40  45 N8        30.19S
Riverhead      NOT AVBL
Westhampton    SUNNY     60  37  42 N13       30.19S
Southampton      N/A     61  41  48 N8        30.15R
Bridgehampton    N/A     57  43  58 W2        30.03S
East Hampton   FAIR      58  39  49 N9        30.17S
Montauk          N/A     58  40  51 N8G18     30.18S
$$

NYZ052-065-067-251500-
HUDSON VALLEY

CITY           SKY/WX    TMP DP  RH WIND       PRES   REMARKS
White Plains   SUNNY     58  37  45 N12G20    30.19S
Newburgh       SUNNY     55  43  62 VRB6      30.22S
Montgomery     SUNNY     57  43  59 NE7       30.22R
Poughkeepsie   SUNNY     54  39  57 NE9       30.21S
Albany         MOSUNNY   53  38  56 W5        30.24R
$$

NJZ001-105-106-008-010-013-015-019>022-104-251500-
NEW JERSEY

CITY           SKY/WX    TMP DP  RH WIND       PRES   REMARKS
Newark/Liberty SUNNY     61  41  47 NE7       30.20F
Teterboro      SUNNY     60  40  47 N7        30.19F
Caldwell       SUNNY     57  43  59 CALM      30.21F
Morristown     SUNNY     59  43  55 CALM      30.21F
Somerville     SUNNY     60  42  51 N5        30.20S
Linden         NOT AVBL
Sussex         SUNNY     59  44  57 NE5       30.21S
Abdover          N/A     58  47  66 VRB3      30.22S
Trenton        SUNNY     62  42  47 VRB6      30.21S
Millville      SUNNY     62  46  55 NE8       30.21S
Atlantic City  SUNNY     63  46  54 NE9       30.20S
Wrightstown    SUNNY     61  43  50 N6        30.19S
Toms River     SUNNY     62  45  53 N6        30.21S
Belmar         SUNNY     61  45  55 N7        30.21S
$$

PAZ047>061-062-071-251500-
EASTERN PENNSYLVANIA

CITY           SKY/WX    TMP DP  RH WIND       PRES   REMARKS
Philadelphia   MOSUNNY   63  41  44 N6        30.23R
Allentown      SUNNY     58  43  57 SW3       30.23F
Scranton       SUNNY     52  44  74 W5        30.24S
$$

CTZ002-004>006-009-010-012-RIZ004-006-007-MAZ004-011-015-251500-
SOUTHERN NEW ENGLAND
 IN CT

CITY           SKY/WX    TMP DP  RH WIND       PRES   REMARKS
Bradley INTL   SUNNY     56  37  49 N7        30.20S
Hartford       SUNNY     56  40  55 N9        30.19F
Danbury        SUNNY     56  36  47 N7        30.21S
Wtrbury/Oxford SUNNY     55  34  44 N9        30.21F
Bridgeport     SUNNY     61  37  41 N8        30.19S
Meriden        SUNNY     59  35  40 N12       30.19S
New Haven      SUNNY     58  36  43 N10       30.19F
Chester        FAIR      55  36  47 NW9       30.18S
Groton         SUNNY     59  39  47 NW14      30.17S
Wilimantic     SUNNY     56  39  53 NW8       30.19S

 IN RI

CITY           SKY/WX    TMP DP  RH WIND       PRES   REMARKS
Providence     SUNNY     58  34  40 N15       30.16S
Block Island   SUNNY     56  39  53 N9G20     30.16F
Westerly       SUNNY     57  36  45 N12G18    30.17F
 IN MA

CITY           SKY/WX    TMP DP  RH WIND       PRES   REMARKS
Boston         SUNNY     56  36  47 NW16G22   30.13F
Worcester      SUNNY     51  33  50 N13G23    30.16S
Westfield      SUNNY     57  37  47 N10       30.18F
Provincetown   SUNNY     57  41  55 N14G20    30.12S
Nantucket      SUNNY     59  39  47 NW16      30.11R
$$

ANZ330-335-338-340-345-350-353-355-251500-
COASTAL MARINE OBSERVATIONS


STATION/POSITION TIME  SKY/WX   TEMP    WIND        PRES    VSBY  WAVE
                                AIR SEA DIR/SP/G                  HT/PER
                 (UTC)          (F)     (DEG/KT/KT) (MB)    (MI)  (FT/S)
NY HARB ENTRANCE 1250            60 71   10/ 14/ 17 1022.0          4/10
20S FIRE ISLAND  1250            60 70  360/ 12/ 16 1021.6          4/11
GREAT SOUTH BAY  1330            58 71  350/ 10/ 14   N/A
23 SSW MONTAUK P 1250            58 68  360/ 16/ 21 1021.5          4/10
15 E BARNEGAT LI 1330               71                N/A           5/12
HUDSON CANYON    1250            63 69              1020.8          5/11
KINGS POINT      1324            58 72              1022.5
EXECUTION ROCKS  1345            58      10/ 10/ 14   N/A
CENTRAL LI SOUND 1330            57 72  360/ 12/ 14   N/A           1/ 2
EASTERN LI SOUND NOT AVBL
ROBBINS REEF     1324            58     340/  6/ 10 1022.9
$$


>>>>>>>>>>>>>>>>>>>>>>>>>>>> KEY <<<<<<<<<<<<<<<<<<<<<<<<<<<
>                                                          <
>     SKY/WX - Sky Condition/Present Weather               <
>     TMP    - Temperature in Fahrenheit                   <
>     DP     - Dew Point in Fahrenheit                     <
>     RH     - Relative Humidity in Percent                <
>     WIND   - Direction (from) and Speed in MPH           <
>     PRES   - Mean Sea Level Pressure (inches of Hg)      <
>     WCI    - Wind Chill Index                            <
>     VSB    - VISIBILITY IN MILES                         <
>     HX     - HEAT INDEX                                  <
>     TC     - TEMPERATURE IN CELSIUS                      <
>     VRB    - VARIABLE WIND DIRECTION                     <
>                                                          <
>>>>>>>>>>>>>>>>>>>>>>>>>>>> KEY <<<<<<<<<<<<<<<<<<<<<<<<<<<




USA.gov is the U.S. government's official web portal to all federal, state and local government web resources and services.